Flag for Micronesia Weather past 2 weeks in Kolonia, Pohnpei, Micronesia

Now
78 °F

Mostly cloudy.


Feels Like: 79 °F
Forecast: 76 / 86 °F
Wind: 6 mph from Southwest

Location: Pohnpei

Current Time: Aug 1, 2015 at 5:00:26 AM

Latest Report: Aug 1, 2015 at 1:55 AM


Visibility: 15 mi

Pressure: 29.77 "Hg

Humidity: 99%

Dew point: 77 °F

Location of KoloniaLocation

Historic Weather in Kolonia — Graph

°F

Kolonia temperature yesterday

Maximum temperature yesterday: 88 °F (at 9:53 AM)
Minimum temperature yesterday: 75 °F (at 5:52 PM)
Average temperature yesterday: 80 °F

Past Weeks' High & Low Weather Summary

 TemperatureHumidityPressure
High90 °F (Jul 23, 10:52 AM)99% (Jul 17, 7:50 AM)29.96 "Hg (Jul 17, 7:50 AM)
Low75 °F (Jul 25, 2:56 AM)65% (Jul 23, 10:52 AM)29.71 "Hg (Jul 31, 4:54 AM)
Average81 °F87%29.86 "Hg
* Reported Jul 17 7:50 AM — Aug 1 1:55 AM, Kolonia, Weather by CustomWeather, © 2015

Note: Actual official high and low records may vary slightly from our data, if they occured in-between our weather recording intervals... More about our weather records

Advertising

Kolonia weather history for previous 24 hours

 ConditionsComfort  
Time TempWeatherWind HumidityBarometerVisibility
1:55 AM
Sat, Aug 1
78 °FMostly cloudy.6 mph99%29.77 "Hg15 mi
12:50 AM77 °FMostly cloudy.9 mph94%29.79 "Hg15 mi
10:52 PM
Fri, Jul 31
78 °FMostly cloudy.3 mph90%29.81 "Hg15 mi
9:52 PM77 °FMostly cloudy.3 mph91%29.80 "Hg15 mi
8:54 PM77 °FMostly cloudy.3 mph96%29.79 "Hg15 mi
7:55 PM76 °FSprinkles. Mostly cloudy.3 mph97%29.78 "Hg10 mi
6:52 PM76 °FSprinkles. Mostly cloudy.3 mph97%29.75 "Hg10 mi
5:52 PM75 °FSprinkles. Mostly cloudy.2 mph98%29.74 "Hg10 mi
4:53 PM76 °FSprinkles. Mostly cloudy.3 mph97%29.71 "Hg10 mi
3:54 PM76 °FSprinkles. Mostly cloudy.3 mph91%29.74 "Hg12 mi
2:53 PM78 °FRain showers. Mostly cloudy.3 mph95%29.71 "Hg7 mi
1:53 PM78 °FSprinkles. Mostly cloudy.3 mph95%29.72 "Hg12 mi
12:52 PM77 °FSprinkles. Mostly cloudy.3 mph95%29.75 "Hg10 mi
11:53 AM87 °FMostly cloudy.7 mph76%29.76 "Hg15 mi
10:51 AM87 °FMostly cloudy.3 mph76%29.77 "Hg15 mi
9:53 AM88 °FMostly cloudy.3 mph73%29.78 "Hg15 mi
8:53 AM87 °FMostly cloudy.3 mph73%29.78 "Hg15 mi
6:50 AM82 °FMostly cloudy.3 mph90%29.75 "Hg15 mi
5:52 AM82 °FMostly cloudy.3 mph90%29.72 "Hg15 mi
Weather by CustomWeather, © 2015

See weather overviewHow to use our weather pages